Regional Weather Roundup
Issued by NWS Spokane, WA

Home | Current Version | Previous Version | Text Only | Print | Product List | Glossary On
Versions: 1 2 3 4 5 6 7 8 9 10 11 12 13 14 15 16 17 18 19 20 21 22 23 24 25 26 27 28 29 30 31 32 33 34 35 36 37 38 39 40 41 42 43 44 45 46 47 48 49 50
232
NZUS01 KOTX 200510
RWROTX

Eastern Washington/Northern Idaho Roundup
National Weather Service, Spokane WA
900 PM PST THU JAN 19 2017

Note: "fair" indicated few or no clouds below 12,000 feet with no
significant weather and/or obstructions to visibility.

...Northeast Washington and Northern Idaho Panhandle...

CITY           SKY/WX    TMP DP  RH WIND       PRES   REMARKS
Spokane Intl   PTCLDY    33  30  88 SE10      29.56F WCI  25
Spokane Downto CLEAR     34  31  88 NE5       29.57F WCI  30
Coeur d Alene  MOCLDY    29  28  96 SE3       29.58F
Deer Park      FOG       29  27  92 NW5       29.57F VSB 1/2 WCI  24
Sandpoint      CLOUDY    34  34 100 S5        29.58S WCI  30
Bonners Ferry  CLOUDY    37  34  87 CALM      29.57S

...Southeast Washington and southern Idaho Panhandle...

CITY           SKY/WX    TMP DP  RH WIND       PRES   REMARKS
Walla Walla    CLOUDY    39  31  72 E5        29.55F
Pullman/Moscow MOCLDY    33  31  92 E13       29.59F WCI  24
Lewiston       MOCLDY    35  32  88 SE6       29.61F
Lowell           N/A     33  31  92 CALM      29.67F
Grangeville    CLOUDY    32  32 100 SE10      29.58F WCI  24

...Columbia Basin...

CITY           SKY/WX    TMP DP  RH WIND       PRES   REMARKS
Ephrata        CLOUDY    33  29  85 N5        29.55F FOG     WCI  29
Moses Lake     FOG       29  26  89 NW3       29.57S VSB 1/4
Pasco          CLEAR     27  27 100 SW5       29.58F FOG     WCI  22
Richland       MOCLDY    23  23  99 N3        29.59S FOG
Hermiston      FOG       26  25  96 CALM      29.54F VSB 1/4
Pendleton      CLOUDY    39  33  79 SE7       29.54F

...East Slopes Cascades...

CITY           SKY/WX    TMP DP  RH WIND       PRES   REMARKS
The Dalles     CLOUDY    31  30  96 CALM      29.58F FOG
Yakima         FOG       33  32  96 NW3       29.55F VSB 1/4
Ellensburg     FOG       33  31  92 CALM      29.53S VSB 1/2
Wenatchee      CLOUDY    30  28  92 NE3       29.56S
Omak           LGT SNOW  33  30  88 SE3       29.57S FOG
Sunnyside      FOG       16  14  93 W3        29.56F VSB<1/4

...Southern British Columbia...

CITY           SKY/WX    TMP DP  RH WIND       PRES   REMARKS
Penticton      LGT RAIN  37  34  87 S13G20    29.52S
Cranbrook      PTCLDY    34  30  86 S12       29.51S WCI  25
Osoyoos          N/A     37  34  87 S7          N/A
Creston          N/A     37  34  87 NE2         N/A

...Western Montana...

CITY           SKY/WX    TMP DP  RH WIND       PRES   REMARKS
Kalispell      FOG       27  25  92 CALM      29.55S VSB 1/4
Missoula       FOG       32  32 100 CALM      29.60S VSB 1/2

...Neighboring Cities...

CITY           SKY/WX    TMP DP  RH WIND       PRES   REMARKS
Seattle        MOCLDY    45  38  76 S9        29.48F
Portland       MOCLDY    38  36  92 E14       29.51F
Boise          CLOUDY    37  32  82 SE10      29.65F
Great Falls    CLOUDY    35  28  75 SW12      29.48S WCI  27
Calgary        PTCLDY    32  18  55 SW5       29.31S WCI  27



USA.gov is the U.S. government's official web portal to all federal, state and local government web resources and services.